RH
65 64 66 66 65 65 61 55 50 48 50 52 53 58 60 56 56 50 35 24 21 17 15 15 15 15 16 16 17 18 16 14 13 12 12 12 13 14 15 15 15 14 14 13 13 12 10 8 7 5 5 5 5 5 5 5 5 4 4 4 4 5 4 5 5 4 4 5 6 8 9 9 10 10 11 12 12 13 12 11 9 7 5 5 4 5 6
63 65 64 64 63 63 59 54 50 46 45 47 49 52 54 49 43 35 26 21 19 16 15 15 15 15 15 15 16 16 15 14 13 13 13 13 13 14 14 15 15 14 14 14 13 12 10 8 7 5 5 5 5 6 5 5 5 4 4 5 5 5 5 5 5 4 4 4 5 7 7 9 10 9 10 11 12 13 14 13 12 9 7 6 4 4 5
66 64 59 57 59 62 61 54 48 45 47 49 49 48 46 39 32 26 22 20 18 16 15 15 15 15 15 15 15 15 15 14 13 13 13 13 13 14 14 15 15 15 15 14 13 11 9 8 6 5 5 5 6 6 5 5 4 4 5 5 5 5 5 5 5 5 4 4 5 6 7 7 9 10 10 11 12 13 14 14 14 12 9 7 6 5 4
69 61 58 59 59 60 58 51 47 51 55 55 49 42 36 31 26 24 22 20 19 18 16 15 16 15 15 15 15 15 15 14 13 13 13 12 13 14 15 16 16 16 15 15 13 11 9 8 6 6 6 5 6 6 5 5 5 5 5 6 6 6 6 6 6 5 4 4 5 5 7 8 9 9 10 12 16 19 18 17 15 14 12 9 8 7 4
74 64 63 62 57 55 53 49 51 57 58 54 46 38 32 29 26 24 23 22 21 19 16 16 16 15 16 16 16 16 15 14 14 13 12 13 13 14 15 16 16 16 16 15 13 10 9 8 7 6 6 6 6 6 5 5 5 5 6 6 6 6 6 7 6 5 5 5 6 6 7 8 8 9 13 18 24 27 26 23 20 16 14 11 10 9 6
78 68 65 63 57 57 55 51 51 54 54 51 45 38 33 29 26 25 23 21 20 18 17 16 16 16 16 16 16 16 15 15 14 13 13 13 14 14 15 16 16 17 16 15 12 10 8 8 7 6 6 6 6 6 5 5 5 5 6 6 6 6 7 7 7 6 6 6 7 8 8 8 10 13 20 25 28 29 29 29 27 21 17 14 11 10 8
74 68 65 64 63 61 57 52 49 46 44 43 39 35 32 28 25 24 22 20 19 18 17 16 16 16 16 17 17 16 16 15 14 14 14 14 14 14 15 16 17 17 16 15 12 9 8 8 7 6 6 6 6 6 5 5 5 6 6 7 7 7 7 8 8 6 6 7 8 9 8 9 13 19 25 27 27 28 28 30 31 28 22 16 13 12 10
69 67 62 62 65 64 59 58 57 49 40 36 34 32 30 27 25 23 22 20 19 17 17 16 16 16 16 17 17 17 17 16 15 14 14 14 14 14 15 16 17 17 16 15 12 9 8 7 6 6 6 6 6 6 5 5 5 6 7 7 8 8 7 8 9 7 7 7 8 9 9 10 14 22 27 27 26 27 29 29 31 32 29 21 15 13 11
68 67 62 60 64 65 61 61 63 56 45 38 34 31 29 27 25 23 21 20 19 18 18 17 16 16 17 17 17 17 17 16 16 15 14 14 14 14 16 17 17 17 16 15 12 9 8 7 6 6 6 6 6 6 5 5 5 6 7 8 9 9 8 9 9 9 8 7 8 9 9 9 13 21 26 27 26 27 30 31 31 32 33 28 20 15 13
64 64 64 62 63 63 58 57 60 57 49 41 34 30 28 26 24 23 21 21 20 19 18 17 16 17 17 17 17 18 18 17 16 15 14 13 14 15 16 17 17 17 16 14 12 9 7 7 7 6 6 6 6 6 6 5 5 6 7 9 10 10 9 9 10 10 9 8 8 8 8 8 11 19 25 27 26 27 30 33 32 32 33 32 26 19 15
64 65 66 66 65 61 54 52 53 50 45 39 33 30 27 23 23 23 21 20 20 20 19 18 17 17 18 18 17 18 19 18 16 15 14 14 14 15 17 18 18 18 16 14 11 8 7 7 6 6 6 6 6 6 6 5 5 6 7 8 10 10 11 10 10 11 11 10 9 8 8 8 10 17 24 27 26 27 30 33 33 32 33 33 31 24 17
72 71 70 67 63 57 51 50 48 45 43 38 34 31 26 22 22 22 20 20 21 20 20 19 17 17 18 19 18 18 19 18 16 15 15 14 14 16 17 18 18 17 16 13 9 7 7 7 7 6 6 6 6 6 6 6 6 5 6 7 9 11 13 13 12 12 12 12 10 9 8 8 10 16 23 26 26 26 29 33 34 32 32 33 33 29 21
77 72 72 69 61 53 49 47 44 42 41 37 34 32 26 21 21 22 21 21 21 20 20 19 18 19 19 19 20 20 19 18 16 15 15 14 15 16 17 18 18 17 15 11 8 7 7 6 7 7 6 6 6 6 6 6 6 5 5 6 8 11 14 14 13 13 12 12 11 9 8 8 10 16 22 26 27 26 27 32 34 33 32 33 33 31 25
78 71 69 66 56 48 44 43 42 41 39 36 33 30 26 22 22 22 22 22 23 22 22 21 20 21 21 21 21 20 19 18 17 15 15 15 15 17 17 18 18 17 13 10 7 7 7 6 6 6 6 6 6 6 6 6 6 6 6 5 7 10 12 13 12 11 12 12 11 10 8 9 13 19 24 27 28 28 29 32 34 34 33 33 34 33 29
75 71 65 57 48 41 39 39 40 40 38 37 34 30 27 25 24 24 25 26 28 28 27 25 24 23 23 22 21 20 19 18 17 16 15 15 16 17 18 19 18 15 11 8 7 6 6 6 6 6 6 6 6 6 6 6 6 6 6 5 6 8 10 10 10 10 11 12 12 11 9 11 16 22 27 29 30 31 33 35 37 36 33 34 36 35 31
71 67 58 48 39 35 33 34 36 37 37 36 34 30 28 28 28 29 32 35 37 35 32 29 27 25 23 23 22 21 19 18 17 15 15 15 17 18 19 19 17 13 9 7 6 7 7 6 6 6 6 6 7 6 6 6 7 6 6 6 6 6 8 9 8 9 10 11 12 11 9 11 18 25 30 32 31 32 36 39 40 37 33 34 37 36 34
64 56 46 39 34 31 31 31 33 34 34 34 32 29 27 27 29 32 35 38 40 38 35 32 29 26 24 23 22 21 19 18 17 16 16 17 18 20 20 19 15 11 8 7 7 7 7 6 6 6 6 6 7 7 7 6 7 7 7 6 6 6 7 8 8 8 9 10 11 11 10 11 18 26 32 33 32 33 38 41 41 37 33 33 37 37 35
51 42 35 31 29 29 30 29 30 31 31 31 30 28 26 26 27 28 31 34 37 37 36 33 29 26 25 23 22 21 19 17 16 16 16 18 19 21 20 17 12 9 7 7 7 7 7 7 7 7 7 7 7 7 7 7 7 7 7 6 6 6 6 7 7 7 8 9 10 11 11 11 17 27 33 34 33 35 39 43 41 36 31 31 33 38 38
36 31 30 29 29 31 31 31 31 30 30 30 29 28 27 26 26 28 30 33 36 36 35 32 29 27 25 23 22 20 18 17 17 17 18 19 21 21 18 14 9 7 7 7 7 7 7 7 7 7 7 7 7 7 7 7 7 7 7 6 6 6 6 7 7 7 7 8 8 10 11 12 17 27 34 35 34 36 42 45 41 34 31 29 32 39 44
25 25 28 29 30 30 30 30 30 29 28 29 28 27 27 27 27 30 33 35 36 35 33 30 28 26 24 22 21 19 17 17 17 17 19 21 21 19 15 10 8 7 7 7 7 7 7 7 7 7 7 7 8 8 7 7 7 7 7 6 5 6 6 6 7 7 7 7 8 9 11 12 17 26 34 36 35 36 42 46 42 34 31 32 34 38 40
24 24 26 28 28 29 30 30 29 28 28 27 27 27 28 28 29 32 33 34 33 32 30 29 27 25 23 22 20 18 18 18 18 19 21 22 20 16 11 8 7 7 7 7 7 7 7 8 8 8 8 8 8 8 7 7 7 7 6 6 6 6 6 6 7 8 8 8 8 9 10 12 18 27 35 38 36 36 40 44 43 36 33 33 35 36 36
31 28 28 29 29 30 30 29 29 28 28 27 27 28 28 28 30 31 31 31 31 30 29 28 26 24 23 21 19 18 18 18 19 21 23 21 16 12 8 7 7 7 7 7 7 8 8 9 10 10 10 9 9 8 8 7 7 7 6 6 6 6 6 7 9 9 9 9 9 9 10 11 19 31 40 40 37 36 38 42 42 38 34 34 35 36 36
37 35 34 33 32 32 32 31 30 30 28 27 28 28 28 29 30 30 30 30 30 30 29 27 25 24 22 20 19 18 18 20 23 23 21 16 11 8 7 7 7 7 7 8 9 10 11 11 11 11 11 9 8 8 8 7 7 6 6 6 6 7 8 10 11 11 10 10 10 11 11 12 19 34 44 43 39 36 37 40 42 38 35 36 36 36 37
35 35 35 34 34 34 34 33 32 31 30 29 29 29 30 30 31 31 31 31 31 30 29 27 25 23 20 19 19 19 21 24 24 21 16 11 8 8 7 7 7 8 9 10 11 12 13 13 12 12 10 9 8 7 7 7 6 6 6 6 8 9 10 11 11 11 10 10 11 12 13 15 24 38 46 46 41 38 37 39 42 40 37 38 39 38 38
31 31 31 32 32 33 32 32 32 31 31 32 32 32 32 33 33 32 32 32 31 30 28 26 23 20 19 19 20 23 25 25 21 15 11 8 8 8 7 8 9 11 12 13 14 14 14 13 13 11 10 8 7 7 6 6 6 7 8 9 10 10 11 11 11 10 10 10 12 14 16 21 32 45 51 47 43 45 44 40 40 41 38 37 40 41 39
28 28 28 29 30 30 30 31 32 33 34 35 36 36 36 36 35 35 34 32 31 28 25 22 20 20 21 22 24 26 25 20 14 10 8 8 8 8 9 11 13 14 15 16 15 15 14 14 12 10 9 7 6 6 7 7 7 8 9 10 11 11 11 11 11 11 12 12 14 16 20 28 41 52 54 47 44 51 54 46 40 42 42 40 41 42 40
27 27 27 28 28 29 30 32 34 36 37 38 38 38 38 38 36 35 33 30 27 25 22 21 21 22 25 27 27 25 19 13 10 9 8 8 9 11 13 16 16 16 17 17 16 16 15 13 11 8 7 6 6 6 7 8 9 10 10 11 12 12 12 12 13 15 16 17 17 18 24 35 48 55 55 49 46 52 58 54 46 46 50 50 49 47 44
27 27 27 28 29 30 32 35 38 40 40 40 40 39 39 37 35 32 30 26 24 22 22 23 24 27 29 28 23 17 12 9 9 8 9 11 14 16 17 18 17 17 18 18 17 16 14 11 8 6 6 6 7 8 8 9 10 12 12 13 14 13 13 16 19 21 21 19 18 20 28 41 52 54 53 53 53 55 60 60 53 48 50 54 55 55 52
27 26 27 29 30 32 35 39 41 42 42 41 40 38 36 34 31 28 25 23 22 22 24 26 29 30 28 22 15 11 9 9 9 11 13 16 18 18 18 18 18 19 20 19 17 14 10 8 6 5 6 7 7 9 11 12 13 15 14 14 14 13 15 20 24 25 23 19 18 24 33 43 52 53 51 53 57 57 57 56 52 48 49 55 58 60 58
26 27 28 29 32 35 39 41 42 42 41 40 37 35 32 29 26 24 23 22 23 24 28 31 31 26 19 13 10 9 9 10 12 16 18 19 19 18 18 19 20 21 20 17 14 10 7 7 6 6 7 8 9 12 14 15 16 16 15 15 15 14 17 23 26 25 21 18 19 27 35 42 49 52 49 52 57 57 52 48 47 47 50 55 59 59 56
26 27 28 30 34 37 41 42 42 41 39 36 33 31 28 25 23 23 23 23 26 29 32 31 25 17 12 10 9 10 11 14 18 20 20 19 18 19 20 22 22 21 18 14 10 7 6 6 7 7 9 11 13 15 17 17 18 17 16 16 16 16 20 26 27 22 19 18 20 27 34 40 46 50 50 54 62 63 56 49 47 48 50 53 56 57 56
26 27 28 31 34 37 40 41 40 38 35 32 29 26 24 23 23 24 25 28 32 33 31 24 16 11 10 10 10 12 16 19 21 20 19 19 19 20 22 23 23 19 14 10 7 6 6 7 8 10 12 14 16 17 18 19 18 17 17 17 16 18 24 28 25 20 18 18 22 27 33 39 46 51 51 53 60 65 61 52 47 47 49 50 51 53 55
26 28 30 32 34 36 37 37 35 33 30 28 25 23 23 23 25 28 32 35 34 29 21 15 11 10 10 11 13 17 20 21 20 20 19 20 21 22 23 24 21 16 10 7 6 6 7 9 11 14 15 17 18 19 21 22 21 19 19 17 17 21 27 26 21 18 17 18 23 30 37 44 50 51 48 48 51 56 56 51 46 45 45 43 42 42 44
26 28 29 30 31 32 32 30 29 28 26 24 24 24 26 28 32 36 37 34 27 19 14 11 11 11 11 14 18 21 22 21 21 20 20 21 22 24 24 23 18 11 7 6 7 8 10 12 15 16 18 18 18 20 22 25 25 23 20 19 21 26 27 23 19 17 16 18 28 39 47 54 55 50 48 51 55 57 59 58 54 54 51 43 38 41 44
26 27 27 27 27 27 26 25 25 24 24 25 27 29 33 37 39 38 33 25 17 13 12 11 11 12 15 19 22 23 23 22 22 21 21 22 23 25 25 20 13 7 6 7 8 10 13 15 16 17 16 14 14 16 21 25 27 24 21 23 26 26 23 19 17 15 18 28 45 57 63 66 60 50 49 57 60 61 64 65 61 60 58 48 44 54 63
25 25 25 25 24 24 24 23 23 24 27 31 35 39 42 43 39 31 23 17 14 13 12 12 13 15 19 22 23 23 23 23 22 21 22 23 26 27 22 14 8 7 7 8 10 13 15 16 16 15 14 13 15 19 22 25 25 23 24 27 26 22 20 18 16 18 29 47 63 71 73 69 57 48 50 57 57 54 55 56 53 54 54 48 47 60 76
24 24 24 23 23 23 23 25 28 33 37 41 45 46 43 37 29 22 17 15 13 13 12 13 16 19 22 24 25 25 24 23 22 22 23 25 28 25 17 9 7 8 8 11 14 16 17 16 15 15 16 17 19 21 23 24 25 25 26 25 21 18 18 16 14 23 44 61 70 72 70 62 52 47 50 53 51 47 46 45 44 46 48 46 48 58 69
23 23 23 23 25 27 29 34 38 42 45 47 48 44 36 28 22 18 16 14 13 13 14 16 19 22 24 26 26 26 24 23 22 23 26 28 28 20 11 7 8 8 10 14 17 17 16 16 17 19 20 20 20 22 24 26 26 25 23 20 18 19 24 27 31 42 57 65 66 64 58 51 46 46 47 47 47 44 42 42 45 46 44 44 50 58 64
26 26 28 31 33 36 39 41 43 45 48 49 44 36 28 22 19 17 15 13 14 15 17 19 22 24 26 28 28 26 25 23 23 26 29 30 25 15 7 7 9 9 12 17 18 17 16 18 19 20 20 19 20 24 26 25 24 21 19 19 20 24 36 54 68 70 65 58 56 54 49 44 43 45 48 51 52 48 43 44 48 49 44 43 51 61 68
33 34 36 38 41 43 44 45 47 48 48 44 36 28 22 19 17 15 14 15 16 17 19 22 24 26 28 29 28 26 24 24 26 30 32 28 19 10 6 8 10 11 15 19 19 16 17 18 19 18 17 20 24 26 24 22 21 20 20 21 20 21 39 70 85 76 59 51 50 50 47 45 45 47 51 54 54 52 49 49 51 49 43 43 52 63 71
41 42 44 45 46 47 48 48 50 50 45 37 30 24 21 18 16 16 16 17 18 19 22 24 27 29 30 29 26 24 25 27 31 33 32 24 14 7 7 9 11 13 17 20 19 17 16 18 18 16 18 24 27 24 21 22 22 20 20 21 18 23 51 82 84 64 50 49 48 46 47 50 51 53 56 57 55 53 54 55 54 50 44 46 59 71 76
49 49 50 50 51 51 51 52 52 50 43 34 27 23 20 18 17 17 18 19 20 22 24 27 28 30 30 26 24 25 28 32 35 34 29 19 10 7 8 11 13 15 19 22 20 17 16 17 16 17 22 27 26 21 21 24 22 19 21 21 17 29 64 88 79 57 51 56 54 51 51 51 47 47 54 58 55 51 54 58 56 49 48 58 71 78 81
53 52 52 53 53 53 53 54 51 45 36 28 23 21 19 18 18 18 20 21 23 24 27 29 30 29 26 23 24 29 33 37 37 34 25 16 10 10 12 13 14 18 22 23 22 20 18 16 16 19 25 26 23 20 22 23 18 18 22 20 19 40 76 93 77 58 55 62 63 57 49 43 46 56 67 68 59 52 56 64 61 54 59 78 90 88 86
53 52 52 52 52 52 51 48 42 34 27 23 21 20 19 18 19 21 22 23 25 28 30 30 28 25 23 24 28 33 37 39 38 31 21 13 11 13 14 15 16 21 25 25 24 23 20 17 18 23 26 25 21 21 22 19 16 18 21 18 25 56 91 96 74 54 54 61 63 54 43 46 67 88 92 82 68 61 63 69 68 67 77 94 101 96 90
54 53 52 51 49 47 43 38 31 26 23 21 20 19 19 20 21 22 24 26 29 31 30 28 25 23 24 29 34 37 39 40 36 26 15 10 11 13 14 15 18 22 26 27 27 27 22 19 21 26 26 23 22 23 21 15 12 17 21 18 29 65 97 96 71 54 58 66 64 50 39 46 69 89 94 86 78 77 80 83 85 88 94 97 97 96 95
55 53 50 47 43 38 33 28 25 23 21 20 19 19 21 22 23 25 27 30 31 30 27 24 23 25 29 34 38 40 40 38 29 19 12 11 12 14 16 18 21 23 26 29 31 28 23 21 24 27 25 23 23 23 19 11 9 15 20 18 26 58 91 95 73 57 59 63 54 38 29 35 50 67 81 89 89 90 95 98 98 98 97 93 90 93 96
54 51 47 42 37 32 28 26 24 22 21 20 20 21 22 24 26 30 31 31 29 26 24 23 25 30 35 39 41 41 40 33 22 12 10 12 14 16 19 22 24 25 27 31 33 28 22 23 27 26 23 23 25 21 15 8 7 13 18 18 23 50 84 94 77 57 51 50 39 27 27 39 50 58 69 82 89 91 94 95 96 97 97 94 93 96 97
54 50 46 41 36 31 28 25 22 21 20 21 21 23 26 29 31 32 30 27 25 24 24 26 31 36 40 42 43 42 38 29 17 10 9 12 15 19 22 23 25 27 29 33 34 27 21 25 30 26 22 25 25 19 11 7 6 10 15 16 22 47 80 94 81 61 51 48 42 33 31 37 44 48 53 65 79 89 92 91 92 96 100 100 98 98 96
53 49 45 40 34 29 25 23 21 20 21 23 25 28 31 31 30 28 25 25 25 25 27 32 38 41 42 42 41 36 28 20 14 13 13 13 16 21 23 23 26 28 30 33 31 24 21 28 31 25 22 26 25 16 10 9 6 7 13 15 18 39 73 92 85 69 59 56 54 48 38 31 30 34 40 48 62 78 89 95 95 94 94 96 98 100 99
54 49 43 37 31 26 23 22 21 22 24 27 30 32 31 29 26 25 24 25 27 29 33 39 43 42 41 40 36 27 17 12 12 14 13 14 18 22 23 23 26 29 30 31 28 22 23 31 33 25 23 28 25 15 12 12 6 4 10 13 14 31 64 88 89 78 67 60 57 53 45 35 33 37 41 44 50 62 76 89 96 95 91 88 90 94 97
53 45 38 32 27 23 22 22 23 25 29 32 33 31 28 26 25 26 27 29 33 36 41 44 44 42 40 37 29 18 10 8 9 10 10 13 19 24 23 23 27 30 29 29 26 21 23 32 34 25 23 28 25 16 14 15 9 4 8 12 12 26 56 83 91 85 73 61 56 54 49 44 45 48 47 46 49 55 63 76 91 98 96 92 91 94 98
45 36 30 26 23 22 23 25 27 31 34 34 31 28 27 27 27 28 32 37 41 43 44 44 43 42 38 30 20 12 8 8 9 9 10 14 21 25 24 24 28 30 28 27 25 20 23 33 36 27 23 27 26 19 17 19 14 6 5 9 12 23 44 67 83 88 80 68 61 62 64 66 70 68 60 55 58 61 62 69 85 98 100 99 99 99 99
Wind_Speed
14 14 14 15 16 17 17 16 15 15 15 15 14 14 15 15 15 18 20 18 19 19 18 17 17 17 18 18 18 18 18 18 19 20 20 21 21 22 24 24 25 26 26 26 27 27 28 27 27 27 27 27 28 29 31 32 33 34 35 36 36 36 35 35 34 34 32 30 29 27 26 26 26 27 27 27 28 27 27 27 27 29 33 37 40 42 42
14 13 14 15 16 17 17 16 16 15 14 14 13 13 15 15 16 18 20 20 20 19 18 17 17 17 18 19 19 20 20 20 21 22 22 22 23 24 25 25 26 26 27 27 28 28 28 28 28 27 27 28 29 30 31 32 33 34 35 36 36 35 35 35 35 34 32 30 29 28 28 28 28 28 29 30 30 30 29 27 26 27 30 33 35 38 41
15 13 12 13 15 16 16 16 15 15 13 13 13 13 14 16 16 18 20 21 20 19 18 17 18 19 19 20 21 21 21 22 23 23 23 23 23 24 25 26 26 27 27 28 29 29 29 29 29 28 28 29 29 30 31 32 33 34 35 36 35 35 35 36 35 34 32 30 30 29 29 29 29 30 31 32 33 33 32 30 28 26 27 30 31 34 38
17 13 9 12 14 14 16 15 14 14 13 13 14 14 15 16 17 19 20 21 20 19 18 18 19 20 21 21 21 22 22 23 23 23 23 23 24 25 26 26 26 27 27 28 28 29 29 29 29 29 29 29 30 31 31 32 33 35 35 36 35 35 35 36 35 34 31 29 29 29 29 30 30 31 33 34 33 33 33 32 30 27 27 28 29 31 34
18 12 9 12 13 14 15 13 12 13 14 14 15 15 15 17 19 20 21 21 21 20 20 20 21 21 22 21 22 22 23 23 23 23 23 24 25 25 26 26 26 27 27 28 28 28 28 28 29 29 29 30 30 31 31 32 33 35 35 36 35 35 35 35 35 33 31 29 29 30 30 31 33 34 34 33 32 31 30 31 31 29 27 27 28 29 31
19 15 13 15 14 12 12 10 11 14 15 16 16 17 17 18 20 21 21 22 23 23 22 22 22 22 22 22 22 23 23 23 23 24 24 24 25 26 26 27 27 27 28 28 28 27 27 28 29 29 30 30 31 31 31 32 33 34 35 36 35 35 35 35 34 32 31 30 30 31 32 34 35 35 33 31 30 29 28 28 30 30 29 27 28 29 29
20 18 17 18 15 12 10 10 12 14 16 17 18 18 18 19 20 21 22 23 24 24 23 23 23 23 23 23 24 24 24 24 24 24 24 25 26 27 27 27 28 28 29 29 28 28 28 28 29 30 30 30 31 31 32 32 34 34 35 35 35 35 35 34 33 32 30 29 30 31 32 34 35 34 32 30 29 29 28 28 28 29 30 29 28 28 29
21 20 20 21 17 14 12 12 14 16 16 18 19 19 19 20 21 23 23 24 24 24 24 23 24 24 23 24 25 25 24 25 25 25 25 26 27 27 28 28 29 29 30 30 29 29 28 29 30 30 30 30 31 31 32 33 34 34 35 35 35 34 34 34 33 31 30 29 29 31 32 33 33 33 32 31 30 30 29 29 29 29 29 30 29 28 28
23 22 23 22 19 18 17 15 17 19 18 18 19 21 21 21 23 24 24 24 24 24 24 24 25 25 25 26 26 25 25 26 25 26 26 27 28 28 28 29 30 30 30 30 30 29 29 30 30 30 30 30 31 31 32 33 34 34 35 35 35 34 34 33 32 31 30 29 29 30 32 33 33 32 32 31 31 30 29 29 29 29 29 30 30 29 28
25 24 25 24 22 22 20 18 18 20 20 20 20 22 23 22 23 25 25 25 25 25 25 26 26 25 26 27 26 25 26 27 27 27 28 28 29 29 29 30 30 31 31 31 31 30 30 30 30 30 30 31 31 32 32 33 34 34 35 35 35 34 34 33 32 32 31 30 30 30 31 32 32 32 31 31 30 29 29 29 29 30 30 30 30 30 29
28 26 27 27 24 23 20 19 20 21 21 21 21 23 24 23 23 25 26 25 26 26 26 26 26 26 28 28 27 26 27 28 28 28 29 29 29 30 30 31 31 31 32 31 31 30 30 30 31 31 31 31 31 32 33 33 34 34 35 35 34 34 34 33 33 32 31 31 31 31 31 32 32 31 31 31 30 29 28 28 29 29 30 30 30 30 30
30 27 27 27 25 22 20 21 22 22 22 22 22 24 24 22 22 25 26 25 26 27 26 27 27 27 28 28 28 28 28 28 29 29 30 30 30 31 31 31 31 31 32 31 31 31 30 31 31 31 32 31 31 32 33 34 34 34 34 34 34 34 34 34 33 32 31 31 31 31 32 32 31 31 31 31 30 30 29 28 29 29 29 29 29 30 30
30 26 24 26 26 23 21 22 24 24 24 24 24 24 24 23 23 25 25 26 27 27 27 27 28 27 28 28 29 29 29 29 29 30 31 31 31 32 32 32 32 32 32 31 31 31 31 31 31 32 32 32 32 33 34 35 35 35 35 35 35 35 35 34 34 32 32 31 31 31 32 32 31 30 31 31 31 30 29 29 28 28 28 29 29 29 30
28 25 24 26 27 24 23 24 24 24 25 25 25 24 25 24 25 25 25 26 27 27 28 28 28 28 28 29 29 30 30 30 31 31 31 32 32 32 32 32 32 32 32 31 31 32 32 32 32 32 32 32 33 33 35 35 36 36 35 35 35 35 35 35 34 33 32 32 32 32 31 31 31 30 30 30 30 30 29 29 28 28 28 28 28 29 30
26 25 25 27 27 25 24 25 25 25 26 26 25 25 25 25 25 26 26 27 28 28 28 28 28 28 29 29 30 30 31 31 32 32 32 32 32 32 32 32 32 32 32 31 32 32 33 33 32 32 33 33 34 34 35 36 36 36 36 35 35 35 35 35 34 33 33 32 32 32 32 31 30 30 29 30 30 29 29 28 28 28 28 27 28 28 29
26 27 27 27 26 25 25 25 25 26 26 26 26 26 26 26 26 27 28 28 28 28 28 28 28 29 29 29 30 31 31 32 32 32 32 32 33 32 32 32 32 32 32 32 32 33 33 33 33 33 34 34 34 35 36 36 37 37 36 36 36 36 36 35 35 35 34 33 33 33 32 30 30 29 29 30 30 29 28 27 27 28 28 28 28 28 29
27 28 28 27 26 25 26 26 26 26 26 26 27 27 27 27 28 28 29 29 29 28 28 29 29 29 30 30 31 31 32 32 32 32 32 32 32 32 32 32 32 32 32 32 33 33 34 34 34 34 35 35 35 35 36 37 37 37 37 37 37 37 36 36 36 35 35 34 33 33 32 31 29 29 29 30 30 29 27 26 27 27 27 27 27 28 28
27 27 27 27 26 25 25 25 25 26 26 26 27 27 27 28 28 29 29 29 29 29 29 29 30 30 30 31 31 32 32 32 32 32 32 32 32 32 32 32 32 32 32 32 33 33 34 34 35 35 35 36 36 36 36 37 38 38 38 37 37 37 37 37 36 36 35 34 33 32 32 32 30 29 30 30 30 29 27 26 26 26 26 27 27 27 28
26 26 26 26 25 25 25 25 25 25 26 26 27 27 27 28 29 29 29 29 29 29 29 30 30 30 31 31 31 32 31 31 31 32 32 32 32 32 32 32 32 32 32 33 33 34 34 34 35 35 36 36 37 37 37 38 38 38 38 38 37 37 37 37 37 37 36 35 34 32 32 32 31 30 29 30 29 28 27 26 25 24 25 26 26 27 27
26 26 26 26 25 25 25 24 25 25 25 25 26 26 27 28 28 28 29 28 28 29 29 29 30 30 31 31 31 31 31 31 31 32 32 32 32 32 32 32 32 32 32 33 34 34 34 35 35 36 37 37 37 37 38 38 38 39 39 38 38 38 37 37 37 37 36 36 35 33 32 32 31 30 29 29 29 28 27 26 25 24 24 25 26 26 27
26 26 25 25 25 25 25 25 25 26 25 25 25 26 27 27 27 27 27 27 28 28 29 29 30 30 30 30 30 31 31 31 32 32 32 32 32 32 32 32 32 32 33 33 33 34 34 35 36 36 37 37 38 38 38 38 39 39 39 39 38 38 38 38 37 37 36 36 36 34 33 32 31 30 29 29 29 28 26 26 25 24 24 24 25 26 26
25 25 24 24 25 25 25 25 25 25 25 25 26 26 26 27 27 27 27 27 27 28 28 29 29 29 30 30 30 31 31 32 32 32 32 32 32 32 31 32 32 32 32 33 33 34 35 36 36 37 37 38 38 38 38 38 39 39 39 39 39 38 38 38 37 36 36 36 36 35 33 32 30 29 29 29 29 27 26 25 25 24 23 24 25 25 26
24 23 23 24 24 24 25 25 25 25 25 25 26 26 26 26 26 26 26 27 27 27 28 28 29 29 30 30 30 31 31 31 31 31 31 31 31 31 31 31 32 32 32 33 34 35 35 36 37 37 37 38 38 38 38 39 39 39 39 39 39 39 38 38 37 37 36 36 35 35 33 32 30 28 28 29 29 27 25 24 24 24 23 23 24 25 25
24 24 23 24 24 24 24 24 24 25 25 25 25 26 26 26 26 26 27 27 27 28 28 29 29 29 30 30 30 30 30 30 30 31 30 30 30 30 31 31 31 31 32 33 34 35 36 36 37 37 37 37 38 38 38 38 39 39 39 39 39 39 39 38 38 37 36 35 34 33 32 31 29 28 27 28 28 27 25 23 23 23 23 22 23 23 24
24 24 24 24 24 24 24 24 25 25 25 25 25 25 25 26 26 26 27 27 28 28 28 29 29 29 29 29 29 29 30 30 30 29 29 29 29 30 30 30 31 32 33 34 35 35 36 37 37 37 37 37 38 38 38 38 38 39 39 39 39 39 39 38 37 36 35 33 31 30 30 29 29 28 27 27 27 26 24 22 21 22 22 21 21 23 23
24 24 25 25 25 25 24 24 25 25 25 25 25 25 25 25 26 26 27 27 28 28 28 28 28 28 29 29 29 29 29 29 28 28 28 28 29 29 29 30 31 32 34 35 35 36 36 37 37 37 37 37 37 37 37 37 38 39 39 39 39 38 38 37 35 34 32 30 28 28 28 28 28 27 27 26 26 25 24 22 20 20 21 21 21 22 23
24 24 25 25 25 25 24 24 24 24 24 24 24 25 25 25 26 26 27 27 27 27 28 28 28 27 27 28 28 28 28 28 27 27 27 27 28 28 29 31 32 33 34 35 35 36 36 37 37 36 36 37 37 37 37 37 38 38 38 38 37 36 35 35 34 32 30 28 26 26 27 27 27 27 26 26 25 24 22 21 20 19 20 20 20 20 21
24 24 24 24 24 24 24 23 23 23 23 24 24 25 25 25 26 26 26 26 26 26 26 26 26 26 27 27 27 27 27 26 26 26 26 26 27 28 30 32 33 34 34 35 35 36 36 36 36 36 36 37 37 37 37 38 38 37 36 35 34 34 34 33 31 30 28 27 26 26 26 27 26 26 25 25 25 23 21 20 19 19 19 19 19 19 20
23 24 23 23 23 23 23 23 23 23 23 23 24 24 25 25 25 25 25 25 25 25 25 25 25 26 26 26 26 25 25 25 25 25 25 26 28 30 31 32 33 34 34 35 35 36 36 36 36 36 36 37 37 37 37 37 36 36 34 33 33 33 33 31 29 27 26 26 26 26 26 26 25 25 25 24 23 21 19 19 18 18 17 18 18 18 19
24 23 23 23 23 23 23 23 23 23 23 23 23 24 24 24 24 24 23 24 24 24 24 24 25 25 25 24 24 24 24 24 23 24 26 28 29 30 31 32 34 35 35 35 35 36 36 36 36 36 37 37 37 37 36 36 35 34 33 32 32 33 32 30 28 26 26 26 26 26 26 25 24 23 23 22 21 19 18 17 16 16 16 17 17 17 18
24 23 23 23 23 23 23 23 23 23 23 23 23 23 23 23 22 22 23 23 23 23 23 24 24 23 23 23 23 22 22 22 23 25 27 28 30 31 32 33 34 35 35 35 35 35 35 36 36 36 37 37 37 36 35 34 33 32 31 31 31 31 30 28 27 26 25 25 25 25 25 24 23 22 21 20 19 17 15 15 15 15 15 15 16 16 18
23 23 23 23 23 23 23 23 23 23 22 22 22 22 22 22 22 22 22 22 22 23 23 22 22 22 22 21 21 20 21 22 24 26 28 29 30 32 33 34 35 35 35 35 35 35 35 36 36 36 36 36 36 36 35 33 32 31 30 30 30 29 27 26 25 25 25 25 25 24 23 22 21 21 20 18 17 16 14 13 13 13 13 14 15 16 17
23 22 22 22 22 23 23 23 23 22 22 22 21 21 21 21 21 21 21 21 21 21 21 21 21 21 20 20 19 20 22 24 25 27 28 30 31 33 34 34 35 35 34 34 34 35 35 35 35 36 36 37 36 36 34 33 32 30 29 29 28 26 25 24 24 24 24 24 24 23 22 20 19 19 18 16 15 15 14 13 12 12 12 14 15 16 17
23 22 22 22 22 22 23 22 22 22 21 21 21 20 20 20 20 20 20 20 20 20 20 20 20 19 19 19 19 21 23 25 26 28 30 31 33 34 34 34 34 34 33 34 34 34 35 35 36 36 37 38 37 36 34 32 30 29 28 27 25 24 23 23 23 23 23 23 23 22 20 18 17 16 15 14 13 12 12 12 11 11 12 14 15 16 16
21 21 21 21 21 21 21 21 21 20 20 19 19 19 19 19 19 19 19 19 19 19 19 19 19 18 18 18 20 22 24 26 27 29 31 32 33 34 34 34 33 33 33 33 34 34 35 35 36 37 38 38 36 33 31 29 27 26 25 24 23 22 22 22 22 22 22 22 21 20 18 16 15 14 13 12 11 11 11 11 11 11 12 12 13 14 14
21 20 20 20 20 20 20 19 19 19 18 18 17 17 18 18 18 18 18 18 18 18 18 18 18 18 18 19 21 23 25 27 28 30 32 33 33 33 33 32 32 32 33 33 33 34 35 36 36 37 36 34 31 28 26 25 24 23 22 22 21 22 21 21 20 20 20 20 19 17 15 13 12 11 11 11 10 10 10 10 11 11 11 11 11 11 11
19 19 19 19 19 19 18 18 18 17 17 16 16 16 17 16 17 17 17 18 18 18 17 17 17 18 19 20 22 24 26 28 29 31 32 33 33 32 32 31 30 31 32 32 32 33 34 35 34 32 30 28 26 24 23 22 21 21 21 21 21 21 20 20 19 19 19 18 16 14 12 11 10 10 10 10 10 10 9 9 10 10 9 9 8 9 10
18 18 17 17 17 17 17 17 17 16 16 16 15 15 16 16 16 17 18 18 17 17 17 17 18 19 20 22 24 26 27 29 30 31 32 32 32 31 30 29 30 30 31 30 31 31 32 31 29 27 25 24 23 22 21 20 20 20 20 21 21 20 20 20 19 18 17 15 14 12 10 10 10 10 9 9 10 9 9 9 9 8 7 6 7 9 9
16 16 16 16 17 17 16 16 16 15 15 15 15 15 15 15 16 17 17 17 16 16 16 17 19 20 21 23 25 27 28 29 30 31 31 31 31 30 29 28 29 30 30 29 29 30 29 28 26 24 23 22 21 20 20 20 20 20 21 21 20 20 21 21 19 16 14 13 11 10 9 10 10 10 10 9 9 9 8 8 8 7 5 5 7 8 9
15 15 16 16 16 16 16 16 15 15 15 15 15 14 14 15 16 16 16 16 16 16 17 18 20 21 22 24 26 28 29 29 30 30 30 30 29 28 27 28 28 29 28 28 28 28 27 25 24 23 22 21 20 20 20 21 21 21 21 20 20 21 22 20 16 12 11 11 10 9 9 10 10 10 10 10 9 8 7 6 6 5 4 6 7 8 8
15 15 16 16 16 15 15 15 15 15 14 14 14 14 14 15 15 15 15 16 16 17 18 19 21 22 23 25 27 28 29 29 29 29 29 29 28 27 26 27 28 28 27 27 27 27 25 24 23 22 20 19 19 19 20 21 21 21 20 19 20 21 22 18 13 10 10 10 9 8 9 9 10 10 10 9 8 7 5 4 4 4 4 5 6 6 8
15 15 15 15 15 15 15 15 15 14 14 14 14 14 15 15 15 15 15 16 17 18 19 21 22 23 25 27 28 28 28 29 29 29 28 28 27 26 26 26 27 27 26 26 25 25 24 22 21 19 18 18 19 20 20 21 21 20 19 19 20 21 20 16 12 10 10 9 9 9 9 9 10 10 9 8 7 5 4 3 3 3 3 4 4 5 7
15 15 15 15 15 15 15 15 15 14 14 14 14 14 14 15 15 15 15 16 17 19 20 21 23 24 26 27 28 28 28 28 28 28 27 26 24 24 25 25 25 25 25 24 24 23 22 21 19 17 17 17 18 20 20 20 21 20 19 19 20 21 18 14 11 10 9 8 9 9 9 10 10 10 9 7 6 4 3 2 1 2 4 4 4 5 5
14 14 14 14 14 14 14 15 14 14 14 14 14 14 14 14 14 15 15 16 18 19 21 22 24 26 27 27 28 27 27 27 27 27 26 25 23 22 23 24 24 23 23 23 23 22 21 20 18 16 16 16 18 19 20 20 20 20 19 19 20 20 16 12 10 10 9 8 8 9 9 9 10 10 8 7 6 4 3 1 1 3 3 2 3 5 5
13 13 13 13 13 13 13 14 14 14 14 14 13 13 13 14 14 15 16 17 18 20 22 24 25 26 27 27 27 27 26 26 26 26 25 24 23 22 23 23 23 22 22 22 22 21 20 18 16 14 15 16 17 18 19 19 19 19 19 19 20 19 16 12 10 9 8 7 8 9 9 10 10 10 9 7 5 4 2 1 3 5 4 3 3 5 5
12 12 12 12 12 13 13 13 13 14 14 13 13 13 13 14 15 16 17 18 19 21 23 24 25 26 27 27 27 26 25 25 25 24 23 22 22 22 22 22 22 21 21 21 20 19 18 17 15 14 14 15 16 17 18 18 18 18 18 18 18 18 16 12 10 9 7 7 8 9 9 9 10 10 9 7 6 3 2 2 4 7 6 3 5 6 6
11 11 11 12 12 13 13 14 13 13 13 13 13 13 14 14 15 16 17 19 21 22 24 25 25 26 26 26 25 25 24 24 23 22 21 20 20 20 20 21 20 20 20 20 20 18 16 15 14 13 13 15 15 17 18 18 18 18 17 17 17 17 16 13 10 8 7 7 8 8 8 8 9 9 8 7 6 5 5 5 6 7 7 5 3 4 5
12 12 12 12 13 13 13 13 13 13 13 13 13 13 14 15 15 17 18 20 22 23 24 25 25 26 26 25 24 23 23 22 22 21 20 19 19 19 19 19 19 18 18 18 18 16 14 13 12 12 13 14 15 16 17 17 17 18 17 16 16 16 15 13 10 9 8 7 7 7 7 7 8 9 8 7 6 7 7 6 6 7 8 9 7 4 3
12 12 12 13 13 13 13 12 12 12 12 12 13 14 14 15 17 18 20 21 23 24 25 25 25 25 24 24 23 23 22 21 20 20 18 18 18 18 18 18 18 17 17 17 16 15 13 12 12 12 12 13 14 15 16 17 17 18 17 16 15 15 15 13 11 9 8 7 7 7 7 7 7 8 9 8 7 7 7 6 6 5 5 6 8 8 6
12 13 13 13 12 12 12 12 12 12 12 12 13 14 15 17 18 20 22 23 24 24 24 24 24 24 23 23 22 22 21 20 19 19 18 17 17 17 18 18 17 16 16 16 15 13 12 11 11 11 12 12 13 14 15 16 16 17 17 16 15 14 14 13 11 9 8 7 7 7 7 7 7 7 8 9 8 6 5 5 5 4 3 3 4 6 5
12 12 12 12 11 11 11 12 12 12 12 13 14 15 17 19 21 22 23 23 24 23 23 23 23 23 23 22 21 21 20 19 19 18 17 17 16 16 17 17 16 16 15 15 14 12 11 10 10 10 11 12 13 14 15 15 16 16 16 15 14 14 14 13 12 10 9 8 7 7 7 7 7 7 8 9 9 7 6 4 3 3 3 3 4 4 5
12 11 11 11 11 11 11 11 12 12 12 14 16 18 19 21 22 22 22 22 22 22 22 22 21 21 22 21 20 20 19 19 18 17 17 16 16 16 16 16 16 15 14 13 13 11 10 9 9 10 10 11 12 13 14 15 15 15 15 15 14 13 13 13 12 11 9 9 8 8 7 8 8 8 8 8 9 9 7 6 5 3 3 5 6 7 7
Wind_Direction
258 270 274 272 271 270 265 261 263 264 265 266 263 260 261 266 278 280 278 280 282 281 282 283 285 290 294 295 295 296 298 303 306 308 309 308 307 304 303 302 302 303 304 306 308 309 309 308 308 306 305 306 308 312 315 316 317 318 318 317 315 314 312 311 309 307 300 291 288 289 289 291 293 295 297 298 299 300 299 296 288 275 266 260 256 254 252
255 265 271 271 268 265 263 262 263 263 263 265 263 261 262 265 270 274 276 279 280 281 282 283 287 293 296 297 299 301 304 307 308 308 306 305 303 301 300 299 300 301 304 306 308 309 309 308 308 307 306 307 310 313 315 316 317 317 317 317 316 314 313 311 311 308 301 292 287 287 288 290 292 294 296 296 296 296 296 296 293 284 273 265 259 255 253
256 261 274 278 270 264 261 260 263 266 272 275 271 269 270 270 272 273 275 276 277 280 283 286 291 295 296 298 300 303 305 305 304 303 302 301 299 297 297 297 299 302 304 306 307 308 309 309 308 308 308 308 310 313 314 315 316 318 318 317 316 314 313 313 312 309 303 294 289 289 290 291 291 293 294 295 294 292 291 291 291 288 280 270 263 257 253
252 255 284 289 274 266 263 264 269 272 275 276 275 276 278 277 276 276 276 278 279 280 283 287 291 292 293 296 299 301 300 300 300 299 298 298 296 294 294 296 299 301 303 305 307 307 308 308 307 307 307 307 310 312 314 315 317 319 319 318 317 315 315 314 313 310 305 298 293 291 292 293 294 295 296 295 292 290 287 285 285 286 283 276 268 260 254
254 260 300 299 281 272 269 269 270 266 265 269 273 276 278 278 278 277 277 281 282 283 285 287 288 288 290 293 296 296 296 297 297 297 296 295 293 292 294 296 299 300 302 304 305 305 305 306 306 306 306 307 309 312 314 316 318 319 319 318 317 316 316 316 314 311 306 302 298 296 296 297 298 299 298 296 293 290 286 282 280 280 280 278 272 265 257
264 275 293 291 281 274 269 269 266 262 263 267 269 272 273 273 275 276 278 280 281 282 284 284 284 285 287 291 293 293 294 295 295 296 296 294 292 292 294 297 300 301 303 305 305 304 303 304 305 305 305 306 309 312 315 317 318 319 320 319 318 317 316 316 314 310 305 302 300 299 299 299 300 300 299 297 294 291 288 284 279 275 275 275 273 268 261
263 272 281 280 274 267 266 272 273 269 266 266 266 268 269 270 272 274 276 277 278 279 280 281 282 283 285 288 289 291 293 294 295 296 295 293 293 294 297 299 301 303 305 307 306 304 302 303 303 304 304 306 310 313 315 316 318 319 320 319 318 316 316 315 313 308 303 301 299 298 299 300 300 300 299 297 295 292 288 285 281 276 272 271 271 268 264
261 269 276 276 273 270 269 276 281 276 269 267 269 268 267 268 271 273 274 276 277 278 279 279 279 280 283 284 286 290 292 294 296 296 294 294 295 297 299 301 302 304 306 307 306 305 303 303 303 304 304 307 310 313 315 316 317 319 319 319 317 316 315 315 313 309 303 299 297 297 299 301 302 301 299 297 296 293 288 284 281 277 272 268 268 267 265
262 268 275 277 278 277 272 271 276 276 271 269 270 269 267 266 269 272 274 276 278 278 278 277 277 279 280 281 285 289 292 294 296 296 295 296 298 299 301 302 303 305 307 307 307 305 303 303 304 305 305 307 310 313 314 315 316 318 319 318 317 316 315 315 314 310 304 300 297 297 299 301 302 301 299 297 296 294 290 285 279 276 273 267 265 264 264
263 268 274 277 277 276 271 268 269 270 269 268 268 268 266 264 268 272 275 277 279 279 278 277 277 277 278 280 284 289 292 294 296 296 297 298 299 301 302 303 304 306 307 307 308 306 304 304 304 305 305 306 309 312 314 315 315 316 317 317 317 317 316 315 314 312 307 302 299 297 298 300 301 301 299 298 297 296 292 287 281 276 273 268 263 261 261
265 267 270 272 272 271 269 267 266 264 264 264 265 268 267 265 269 273 274 277 280 280 279 277 276 276 277 280 284 288 291 293 295 296 297 299 301 302 303 304 304 305 306 307 307 305 304 304 305 305 305 306 309 311 313 314 314 315 315 316 316 316 316 316 315 312 309 305 302 299 298 298 299 300 299 298 298 297 293 288 283 278 273 268 263 259 258
265 265 267 270 271 270 267 264 262 262 262 262 264 268 268 266 269 272 273 277 279 279 278 276 274 275 278 282 286 288 290 293 295 296 298 300 302 303 302 303 304 305 306 307 306 305 305 305 306 305 305 306 308 311 312 313 313 313 314 314 315 316 316 316 315 313 310 307 305 302 299 297 297 298 298 297 297 297 294 289 285 280 274 269 263 258 256
264 264 266 270 272 269 264 261 261 261 261 261 263 267 268 268 270 271 273 275 276 276 276 275 275 278 281 283 286 288 290 293 295 297 299 301 302 301 301 302 304 306 307 307 306 305 305 306 306 305 305 306 308 310 311 312 312 313 313 314 315 315 315 316 315 313 311 309 307 304 301 298 297 296 296 296 296 295 293 289 284 280 275 269 264 258 254
265 265 267 270 271 268 263 262 261 260 261 263 265 267 269 270 269 270 271 272 273 275 275 275 277 279 281 283 285 288 291 294 296 298 300 300 300 300 301 303 305 307 307 307 306 305 305 306 306 305 306 307 307 309 310 311 312 312 312 313 314 314 315 315 315 314 312 310 308 306 303 300 298 296 296 296 296 295 292 288 283 279 274 269 264 258 253
263 266 267 267 268 267 265 263 261 260 262 265 267 269 271 271 271 271 271 272 274 275 275 276 278 279 281 284 286 289 292 294 296 298 299 299 299 300 302 304 307 308 307 306 305 305 305 306 306 306 306 306 307 308 309 310 311 312 312 312 313 313 314 314 315 315 314 311 308 307 304 301 298 297 297 297 296 295 291 287 282 277 273 268 262 258 253
261 263 264 265 266 266 265 264 263 262 263 265 268 269 271 272 272 273 273 275 276 276 276 277 279 281 283 285 288 290 292 294 296 297 297 298 300 301 304 306 307 307 306 305 305 305 306 307 307 307 306 306 306 307 308 309 310 311 311 311 312 312 312 313 314 315 314 312 309 307 305 302 300 299 299 299 298 295 291 286 281 275 271 267 261 256 252
257 260 262 263 265 265 264 265 266 266 266 267 269 271 273 274 274 275 276 277 278 278 279 280 282 284 285 287 289 290 292 293 295 296 297 299 301 303 305 306 307 307 306 305 305 306 307 307 307 306 306 306 306 307 307 308 309 310 311 311 311 311 312 312 312 313 313 312 310 308 306 304 302 300 300 301 299 295 290 285 280 274 270 266 261 256 251
256 258 261 262 263 263 264 265 265 266 268 269 271 273 275 276 277 277 278 278 279 279 281 282 284 285 286 287 289 290 291 293 295 297 298 300 301 303 305 307 307 306 305 305 306 306 306 306 306 306 306 307 307 307 307 307 308 309 310 310 311 311 311 310 311 311 311 311 310 309 308 306 303 301 301 301 300 296 290 285 279 274 269 265 261 257 252
256 258 259 260 261 262 264 265 265 266 268 270 272 275 276 278 278 279 279 279 279 279 281 282 283 284 285 287 288 290 292 294 296 298 299 300 302 305 306 307 306 306 305 306 306 306 305 305 306 306 307 307 307 307 307 307 308 308 309 310 310 309 309 309 309 310 310 310 310 310 308 306 303 301 300 301 300 296 291 285 279 274 270 264 260 258 254
255 256 258 259 261 262 264 266 267 268 269 272 274 276 277 277 278 278 278 278 279 279 281 281 283 284 286 287 289 291 294 296 297 298 300 302 304 306 307 307 306 306 305 305 304 305 305 306 306 307 307 307 307 307 307 307 307 308 308 309 309 308 308 309 309 309 309 309 310 309 308 306 303 300 299 301 301 297 292 286 280 274 269 265 260 257 254
255 256 257 260 262 264 266 268 269 271 272 274 274 275 275 276 277 278 279 279 279 280 281 282 284 285 287 289 291 294 296 297 298 300 302 304 306 307 306 306 305 305 304 304 304 305 306 306 306 307 307 307 308 307 307 307 307 307 308 308 308 308 308 308 308 308 308 308 308 308 307 305 303 301 300 300 300 298 293 287 280 274 269 265 261 257 253
256 258 260 263 264 266 268 269 271 273 274 275 275 276 276 277 278 279 280 281 281 282 283 285 286 288 290 292 294 296 297 298 300 302 304 305 306 305 305 304 304 304 303 304 305 306 306 307 307 308 308 308 308 308 307 307 307 307 307 307 307 307 308 308 308 308 307 306 306 305 305 304 302 301 300 299 300 298 294 287 281 275 270 266 262 258 254
257 260 262 264 266 268 270 271 273 275 276 277 278 279 279 280 281 282 283 283 284 285 286 288 289 291 292 294 295 296 297 299 301 303 304 304 303 303 303 303 304 304 304 305 306 307 307 308 309 309 309 309 308 308 307 307 307 307 307 307 307 307 308 308 308 307 305 304 303 302 302 302 301 300 300 300 299 298 295 289 281 275 270 267 264 259 255
258 261 263 265 267 269 271 273 275 276 277 279 279 280 281 282 283 284 284 285 286 287 288 290 291 292 293 294 295 296 298 300 301 302 302 302 302 303 303 304 304 305 306 307 308 308 309 309 309 309 309 308 308 308 307 307 307 306 307 307 308 308 308 308 307 306 304 302 301 300 300 301 301 300 299 300 299 298 295 289 280 274 271 268 264 260 255
259 261 263 265 267 269 271 273 275 276 278 280 280 281 282 283 283 284 285 286 287 288 289 290 291 293 293 294 296 297 299 300 301 301 302 303 303 304 304 304 305 306 307 308 309 310 310 310 310 309 309 308 308 308 308 307 307 307 308 308 308 308 308 307 306 305 304 302 301 299 300 301 300 300 300 300 299 297 294 288 278 271 268 265 261 258 254
260 262 263 265 267 269 271 273 274 276 278 279 280 281 281 282 283 284 285 286 287 288 289 290 291 292 293 295 297 298 299 300 301 302 303 303 303 304 305 306 307 308 308 309 310 311 310 309 309 309 309 308 308 308 309 308 308 308 308 309 309 309 308 308 307 307 306 305 302 301 301 300 299 299 299 299 297 295 291 286 277 268 265 262 256 252 249
261 262 264 266 267 269 270 272 274 276 277 278 279 280 281 282 283 284 285 287 288 289 290 290 291 293 294 296 297 298 299 300 301 302 303 303 303 305 306 307 308 308 309 310 311 310 309 309 310 309 309 309 309 310 309 309 308 309 309 310 310 310 309 309 310 310 310 308 305 303 302 300 298 299 300 300 298 295 290 285 278 270 265 262 256 251 248
261 262 264 265 267 269 271 272 274 275 276 278 279 280 281 282 283 285 286 287 288 288 289 290 292 294 295 296 297 298 299 300 301 301 302 303 304 306 307 307 308 309 311 311 311 310 310 310 311 310 310 311 311 310 310 309 309 310 311 312 312 311 311 311 312 312 310 308 306 304 302 299 299 301 302 301 300 296 291 287 282 275 268 264 260 254 249
260 262 263 264 266 268 269 271 273 275 276 277 279 280 281 283 284 285 286 286 286 287 289 291 293 294 295 296 297 298 298 299 300 301 303 304 306 307 308 309 310 311 312 312 312 311 312 312 312 312 312 312 312 311 310 311 311 312 313 313 312 311 311 311 312 311 309 307 306 305 302 301 301 302 303 302 301 296 291 287 282 276 270 264 259 255 251
259 261 262 263 265 266 268 270 272 274 275 277 278 280 281 283 284 285 285 285 286 287 289 292 293 294 295 295 295 296 297 299 301 303 305 306 307 309 310 312 313 313 313 314 313 313 313 314 314 314 313 313 312 312 312 312 313 313 313 312 311 310 310 311 311 309 307 306 306 304 303 302 301 302 303 302 299 294 289 285 280 274 268 262 258 254 251
259 260 262 263 264 265 267 269 271 273 275 277 278 280 281 283 283 283 284 285 287 289 291 292 292 292 292 293 294 296 299 301 303 305 306 308 309 311 313 314 315 315 315 315 315 314 315 315 315 314 314 314 313 313 313 312 312 311 311 310 309 310 310 310 309 308 307 306 305 304 303 302 301 302 302 301 297 293 288 283 279 275 270 265 261 257 253
258 260 261 262 263 265 266 268 270 273 274 276 278 279 280 281 282 283 285 287 288 289 290 290 291 291 292 294 296 299 300 302 305 307 309 310 312 314 315 316 316 316 316 315 315 315 316 316 316 315 315 314 313 313 312 311 310 310 309 308 309 309 309 308 307 307 307 307 306 305 304 302 302 303 303 302 300 297 291 284 280 278 275 271 266 262 257
258 259 260 262 263 264 266 268 271 273 275 276 278 279 280 282 283 285 286 287 288 289 289 290 291 293 294 296 298 300 302 305 308 310 312 313 315 316 317 318 318 317 316 316 317 317 317 318 317 317 316 315 314 313 311 310 309 309 309 309 310 310 308 307 307 308 308 308 307 307 306 304 303 304 304 303 301 297 291 286 283 279 275 271 267 263 259
258 260 261 262 263 265 267 269 271 273 274 276 277 279 281 282 283 284 285 286 288 289 291 292 294 294 294 296 299 303 306 310 312 313 314 316 317 318 319 319 318 317 317 317 318 319 319 319 319 318 317 316 315 314 313 312 312 312 312 312 312 311 309 309 309 310 310 310 309 309 308 306 305 303 301 299 297 293 289 286 282 276 272 269 266 262 257
258 260 262 263 264 266 267 269 271 272 274 275 277 278 279 280 281 283 286 288 291 292 294 294 294 293 294 298 303 307 311 313 314 315 316 317 318 319 319 319 318 318 317 319 320 320 321 321 321 321 319 319 318 318 318 317 317 317 317 316 314 312 311 311 311 311 311 312 312 312 311 308 304 301 300 299 298 298 297 294 289 283 277 271 266 260 254
259 260 262 263 264 265 266 268 269 271 272 273 274 276 277 279 282 286 289 292 294 294 294 293 292 293 298 303 308 311 313 314 315 316 316 317 318 320 320 319 319 319 319 321 322 323 323 324 324 323 323 324 325 326 327 326 324 323 321 318 316 314 314 314 314 315 316 316 316 315 313 310 307 307 307 307 306 305 302 297 291 286 280 275 268 260 253
257 258 259 260 261 263 264 265 266 267 269 270 271 274 277 281 286 290 292 294 293 293 292 293 294 298 303 308 311 313 315 315 316 316 317 318 319 320 321 320 320 320 321 323 325 325 326 326 327 328 329 331 333 334 334 332 330 327 324 322 320 319 319 319 319 319 320 320 319 318 317 317 317 316 315 314 312 308 301 294 287 282 279 274 263 252 247
252 253 255 256 257 259 260 261 262 264 266 268 270 274 280 285 289 291 292 291 291 292 294 296 299 302 306 310 312 314 315 316 316 316 318 319 320 321 321 321 320 321 322 324 326 328 329 330 332 333 334 335 337 338 337 335 332 330 328 327 327 326 326 325 323 321 321 322 323 323 323 323 323 322 321 317 311 307 303 296 291 287 279 265 250 242 238
248 249 250 251 253 255 256 258 260 261 264 267 271 276 281 285 288 288 289 289 291 294 297 299 301 305 308 311 313 315 316 316 316 317 319 320 321 322 322 321 321 322 324 327 329 331 332 334 336 336 336 337 340 340 338 336 334 333 333 333 332 332 331 328 323 321 323 326 329 329 327 326 325 325 323 318 311 308 305 297 293 291 279 252 241 238 229
246 247 247 249 251 253 255 256 258 260 264 268 272 275 279 282 284 285 287 290 293 296 298 300 303 306 309 312 314 316 316 317 317 318 319 320 322 323 323 322 322 323 326 329 332 333 335 336 337 337 337 339 341 340 338 337 337 337 337 336 336 335 334 330 327 326 330 333 335 334 332 331 330 328 324 319 314 312 310 302 294 286 262 237 232 228 217
244 245 246 248 250 252 254 255 257 261 265 270 273 277 281 283 285 287 289 293 296 298 299 301 304 307 311 313 315 316 317 317 318 319 320 321 322 323 323 322 322 325 328 332 334 335 336 337 338 337 338 339 340 339 339 339 339 339 340 340 339 338 338 337 336 337 340 342 342 340 338 337 334 329 326 323 319 317 316 306 288 268 240 228 224 212 200
244 246 248 249 251 253 254 256 259 262 267 270 274 278 283 286 288 290 292 294 296 298 299 302 306 310 313 314 315 316 317 318 318 320 320 321 323 324 322 322 324 327 330 333 335 336 337 338 338 337 339 339 338 339 341 341 340 341 343 343 341 341 343 342 341 343 348 351 351 346 343 342 340 335 331 330 328 326 324 310 284 252 215 201 195 188 190
245 247 248 250 251 253 255 258 261 263 266 269 273 279 283 286 289 291 292 294 296 298 301 305 309 312 314 315 316 317 318 318 318 319 320 322 323 323 322 322 325 328 331 334 336 338 339 340 339 338 340 339 337 339 343 344 343 344 346 345 343 343 344 343 343 347 354 356 354 350 348 346 345 343 343 344 345 347 351 341 281 190 181 178 168 167 187
245 248 250 251 254 255 257 260 262 264 266 270 275 279 282 284 287 290 293 295 298 301 305 309 312 313 314 315 316 317 318 317 317 318 319 321 322 322 321 322 326 329 332 335 338 340 341 341 339 338 339 340 339 340 344 347 347 347 347 346 345 347 347 346 348 353 358 358 358 358 355 353 354 359 2 2 3 13 18 7 157 153 154 159 151 155 175
247 250 253 255 256 257 259 261 262 265 268 272 275 279 282 285 289 292 295 298 302 306 309 311 312 314 314 315 315 316 317 317 317 318 319 321 322 322 322 324 327 330 333 337 339 341 342 341 338 337 339 342 342 342 344 349 351 350 348 346 348 351 354 354 353 356 2 5 5 3 360 357 0 7 14 17 20 29 36 49 107 113 104 66 67 111 138
247 250 253 256 259 260 262 263 265 267 271 275 278 282 285 288 291 295 299 303 306 309 310 311 312 314 314 314 315 315 316 316 316 317 318 321 322 322 323 325 328 331 335 338 340 341 341 339 338 338 342 344 344 343 346 351 354 353 350 348 350 353 356 356 353 353 360 7 6 3 3 4 5 8 12 16 18 19 24 49 74 89 96 67 34 60 83
246 250 255 258 261 262 264 265 267 270 273 277 281 285 287 291 295 300 303 306 308 309 310 312 313 314 313 314 314 314 315 315 315 316 318 320 321 321 322 325 329 334 338 338 338 340 340 339 338 340 344 346 346 346 348 353 356 355 352 351 352 354 355 356 355 354 357 4 7 5 7 13 16 13 10 7 2 356 349 350 13 47 76 89 73 68 73
250 255 259 261 262 263 264 265 268 271 274 279 283 287 291 295 299 302 305 307 309 311 312 313 313 313 313 313 314 314 314 314 315 316 319 320 320 321 322 325 330 336 339 337 337 339 340 337 337 342 347 348 349 350 351 355 358 357 355 354 355 356 357 358 359 359 360 5 10 12 13 19 24 23 17 7 359 359 360 353 353 18 54 72 76 82 71
254 258 261 261 262 262 264 265 267 271 276 281 285 290 294 299 302 305 308 310 311 312 312 312 312 312 312 313 313 314 315 314 313 316 319 320 320 320 322 324 330 337 339 336 337 341 340 337 338 345 350 351 352 353 355 358 360 359 357 357 359 1 1 1 1 2 3 6 12 15 17 21 27 28 24 16 8 6 11 11 7 12 37 58 66 73 76
256 259 260 261 261 261 262 265 268 273 279 285 289 294 298 302 306 309 311 311 311 311 312 312 311 311 312 313 314 315 315 313 313 316 319 320 320 320 321 324 331 337 338 337 340 343 339 335 340 347 351 353 355 357 359 1 1 0 359 360 2 3 4 4 4 5 7 10 13 16 20 25 32 34 30 25 22 19 17 19 24 30 43 70 79 86 91
258 259 260 259 259 260 262 266 272 279 285 290 294 299 303 307 309 310 310 309 309 310 310 310 310 311 312 313 315 315 314 313 315 318 320 320 320 320 320 324 331 336 337 339 342 342 336 335 342 349 352 354 358 0 2 2 3 3 3 3 4 5 8 9 9 11 15 19 20 22 24 29 35 37 33 30 29 32 35 40 50 60 77 100 109 112 118
259 259 259 258 259 263 268 274 280 286 291 295 300 304 306 306 306 307 307 307 307 307 308 309 310 311 313 314 316 316 314 314 317 320 321 320 321 321 320 324 330 335 336 340 344 341 334 335 344 351 352 355 358 1 3 4 4 5 6 8 8 10 12 14 15 18 23 28 30 31 33 35 37 39 39 37 36 38 43 51 60 77 119 143 143 135 127